ANIK F1R

Last updated on Fri Dec 19 2025 00:02:49 GMT+0000 (Coordinated Universal Time)

1 28868U 05036A 25352.54114426 -.00000053 00000+0 00000+0 0 9997 2 28868 3.8508 78.8459 0001114 212.0717 243.9937 1.00271793 44641
UTC large
Height (km)
Speed (km/s)
/
Latitude / Longitude
Inclination (degrees)
Orbital Period (minutes)
Azimuth
Elevation
Range (km)
Doppler Factor

Next 0 passes for location: London (51.5072 / 0.1276)

Sorry there are no passes over London.